Location: Newark
(43.9494°N, 6.8108°E)
Time: 00:16:58
(UTC+00:00)

A-11 Canister half - Pass Details

Date: 31 October 2019
Orbit: 1514 x 1686 km, 47.2° (Epoch: 11 November)

Event Time Altitude Azimuth Distance (km) Brightness Sun altitude
Rises 05:51:04 0° 294° (WNW) 4,834 - -3.6°
Exits shadow 05:52:24 - 291° (WNW) 4,448 10.7 -3.4°
Reaches altitude 10° 05:54:39 10° 285° (WNW) 3,819 10.4 -3.0°
Maximum altitude 06:02:43 31° 228° (SW) 2,464 9.9 -1.6°
Drops below altitude 10° 06:10:34 10° 170° (S) 3,700 11.5 -0.3°
Sets 06:14:00 0° 160° (SSE) 4,663 12.2 0.3°
